sat.trackr.live / text

‹ back to catalog

IRS-P5 (CARTOSAT-1)

NORAD 28649 · 2005-017A

PAYLOAD ACTIVE UNKNOWN

§ Identity

Operator
Country
IND
Launch date
2005-05-05
Launch site
SRILR
Launch vehicle
Mass (kg)
RCS (m²)
4.69

Purposes: earth_obs

External: N2YO · Heavens-Above · Gunter

§ Orbital elements

Epoch: 2026-05-25T01:25:46.633728Z

Period
96.58 min
Inclination
97.5320°
Eccentricity
0.0002520
Mean motion
14.90978120 rev/d
Perigee alt
593.1 km
Apogee alt
596.6 km
Semi-major
6,973.0 km
B*
1.1207e-4
RAAN
169.1731°
Arg perigee
109.2974°
Mean anomaly
250.8518°
Rev number
14,037

§ Raw data

IRS-P5 (CARTOSAT-1)1 28649U 05017A   26145.05956752  .00001055  00000+0  11207-3 0  99932 28649  97.5320 169.1731 0002520 109.2974 250.8518 14.90978120140371

JSON: /api/v1/satellites/28649 · /tle

For live sub-satellite position, see the globe view (requires WebGL).

§ Visibility from observer

Set your observer location to see the next 7 days of passes ≥ 10°. The values pass through the URL so the page stays shareable.

No JS? Fill the form by hand. The geolocation button needs JavaScript.